Location: STAR School
(35.3054°N, 111.2976°W)
Time: 14:08:27
(UTC-07:00)

Vanguard 3 - Visible Passes

Search period start: 20 May 2019 00:00
Search period end: 30 May 2019 00:00
Orbit: 508 x 3263 km, 33.3° (Epoch: 19 May)

Date Brightness Start Highest point End Pass type
(mag) Time Alt. Az. Time Alt. Az. Time Alt. Az.
20 May 9.2 00:33:26 10° W 00:44:25 83° S 01:02:53 10° E visible
20 May 9.7 02:45:59 10° W 03:00:20 65° SSW 03:20:01 10° SE visible
20 May 8.3 21:09:30 10° SW 21:15:48 48° SSE 21:26:51 10° E visible
20 May 8.8 23:19:48 10° W 23:28:45 81° S 23:44:56 10° E visible
21 May 9.4 01:31:35 10° W 01:43:52 75° SSW 02:03:07 10° ESE visible
21 May 10.0 03:44:53 10° W 03:59:45 48° SSW 04:18:16 10° SE visible
21 May 8.6 19:57:34 10° SSW 20:02:19 27° SE 20:09:31 10° E visible
21 May 8.3 22:06:35 10° WSW 22:13:48 71° SSE 22:27:09 10° E visible
22 May 9.0 00:17:41 10° W 00:27:50 81° S 00:45:28 10° ESE visible
22 May 9.6 02:29:58 10° W 02:43:18 60° SSW 03:02:28 10° SE visible
22 May 10.5 04:44:51 10° W 04:58:51 32° SW 05:14:48 10° SSE visible
22 May 8.1 20:53:50 10° SW 20:59:37 51° SSE 21:09:50 10° E visible
22 May 8.6 23:04:10 10° W 23:12:25 82° S 23:27:35 10° E visible
23 May 9.2 01:15:43 10° W 01:27:05 71° SSW 01:45:36 10° ESE visible
23 May 10.0 03:28:52 10° W 03:42:36 43° SSW 04:00:29 10° SSE visible
23 May 8.1 21:51:00 10° WSW 21:57:39 74° SSE 22:09:58 10° E visible
24 May 8.8 00:01:58 10° W 00:11:21 78° S 00:28:01 10° ESE visible
24 May 9.6 02:14:03 10° W 02:26:22 55° SSW 02:44:46 10° SE visible
24 May 10.5 04:29:05 10° W 04:41:42 27° SW 04:56:34 10° S visible
24 May 7.8 20:38:12 10° SW 20:43:33 55° SSE 20:52:54 10° E visible
24 May 8.4 22:48:35 10° W 22:56:11 81° S 23:10:16 10° E visible
25 May 9.1 00:59:57 10° W 01:10:25 66° SSW 01:27:59 10° ESE visible
25 May 10.0 03:13:02 10° W 03:25:34 38° SSW 03:42:29 10° SSE visible
25 May 7.9 21:35:29 10° WSW 21:41:36 76° S 21:52:52 10° E visible
25 May 8.7 23:46:20 10° W 23:54:57 75° S 00:10:34 10° ESE visible
26 May 9.5 01:58:15 10° W 02:09:33 49° SSW 02:26:54 10° SE visible
26 May 10.5 04:13:39 10° W 04:24:41 23° SW 04:37:55 10° S visible
26 May 7.6 20:22:39 10° WSW 20:27:36 58° SSE 20:36:06 10° E visible
26 May 8.2 22:33:03 10° W 22:40:01 80° S 22:53:01 10° E visible
27 May 9.0 00:44:15 10° W 00:53:52 60° SSW 01:10:17 10° SE visible
27 May 10.0 02:57:23 10° W 03:08:42 32° SSW 03:24:12 10° SSE visible
27 May 7.7 21:19:58 10° W 21:25:37 77° S 21:35:52 10° E visible
27 May 8.5 23:30:44 10° W 23:38:39 70° SSW 23:53:06 10° ESE visible
28 May 9.8 01:42:35 10° W 01:56:25 38° S 02:08:52 10° SE visible
28 May 10.5 04:01:21 14° WSW 04:07:50 18° SW 04:18:44 10° S visible
28 May 7.3 20:07:07 10° WSW 20:11:43 62° SSE 20:19:25 10° E visible
28 May 8.0 22:17:31 10° W 22:23:57 77° S 22:29:31 32° ESE visible
29 May 9.2 00:28:37 10° W 00:50:02 16° SE 00:52:31 10° SE visible
29 May 10.2 02:54:51 26° SSW 02:54:51 26° SSW 03:05:39 10° SSE visible
29 May 7.5 21:04:30 10° W 21:09:43 77° S 21:18:30 11° E visible
29 May 8.4 23:15:11 10° W 23:22:26 63° SSW 23:22:58 63° S visible
